Regional Weather Roundup
Issued by NWS

Home | Current Version | Previous Version | Graphics & Text | Print | Product List | Glossary On
Versions: 1 2 3 4 5 6 7 8 9 10 11 12 13 14 15 16 17 18 19 20 21 22 23 24 25 26 27 28 29 30 31 32 33 34 35 36 37 38 39 40 41 42 43 44 45 46 47 48 49 50
000
ASUS43 KBIS 240810
RWRND

NORTH DAKOTA REGIONAL WEATHER ROUNDUP
NATIONAL WEATHER SERVICE BISMARCK ND
200 AM CST FRI NOV 24 2017

NOTE: "FAIR" INDICATES FEW OR NO CLOUDS BELOW 12,000 FEET WITH NO
SIGNIFICANT WEATHER AND/OR OBSTRUCTIONS TO VISIBILITY.


NDZ001>003-009>011-017-240900-
NORTHWEST NORTH DAKOTA

CITY           SKY/WX    TMP DP  RH WIND       PRES   REMARKS
WILLISTON      PTCLDY    46  40  79 NW6       29.38S
MINOT          CLOUDY    55  38  52 W21G29    29.31R
MINOT AFB      LGT RAIN  47  41  80 W13       29.30R
$$

NDZ018>021-031>035-040>046-240900-
SOUTHWEST NORTH DAKOTA

CITY           SKY/WX    TMP DP  RH WIND       PRES   REMARKS
BISMARCK       CLEAR     55  37  50 W8        29.38S
DICKINSON      CLOUDY    54  34  46 SW17      29.37F
GARRISON         N/A     42  36  79 W10       29.34R
HETTINGER ARPT CLEAR     44  31  60 W5        29.47F
$$

NDZ004>008-012>016-024-026-027-054-240900-
NORTHEAST NORTH DAKOTA

CITY           SKY/WX    TMP DP  RH WIND       PRES   REMARKS
GRAND FORKS    MOCLDY    41  36  82 SW7       29.23F
GRND FRKS AFB  PTCLDY    46  36  68 W14       29.23F
DEVILS LAKE    CLEAR     43  36  76 W15       29.27F
$$

NDZ022-023-025-028>030-036>039-047>053-240900-
SOUTHEAST NORTH DAKOTA

CITY           SKY/WX    TMP DP  RH WIND       PRES   REMARKS
FARGO          CLEAR     50  38  63 SW13      29.31F
JAMESTOWN      PTCLDY    51  37  58 W10       29.32F
$$





USA.gov is the U.S. government's official web portal to all federal, state and local government web resources and services.